Date String (YYYY-MM-DD hh:mm:ss) UTC,Instrument flags,Ambient pressure (hPa),Sample flow (lpm),Bypass flow (lpm),Sample temperature (°C),Ambient temperature (°C),ASC tube jacket temperature (°C),LED temperature (°C),Box temperature (°C),Sample RH (%),Span deviation,Mass concentration (μg/m³),Mass concentration (μg/m³),Mass concentration (μg/m³)
DateTimeUTC,F1_M11,P_M11,Q1_M11,Q2_M11,T1_M11,T2_M11,T3_M11,T4_M11,T5_M11,U1_M11,ZSPAN_M11,X0_M11,X2_M11,X1_M11
2022-01-20 04:00:00,,0833.2,4.98,0.00,21.7,20.9,00.0,30.6,23.3,10.7,0000.0,0007.45,0005.11,0004.85
2022-01-20 04:01:00,,0833.2,5.02,0.00,21.6,20.7,00.0,30.6,23.2,10.7,0000.0,0007.52,0005.13,0004.85
2022-01-20 04:02:00,,0833.2,4.98,0.00,21.6,20.6,00.0,30.6,23.2,10.7,0000.0,0007.48,0005.08,0004.82
2022-01-20 04:03:00,,0833.3,5.00,0.00,21.5,20.5,00.0,30.6,23.1,10.7,0000.0,0007.39,0005.02,0004.77
2022-01-20 04:04:00,,0833.2,5.02,0.00,21.5,20.5,00.0,30.6,23.1,10.7,0000.0,0007.24,0004.95,0004.73
2022-01-20 04:05:00,,0833.3,5.00,0.00,21.6,21.2,00.0,30.6,23.2,10.7,0000.0,0007.17,0004.94,0004.72
2022-01-20 04:06:00,,0833.3,5.01,0.00,21.7,22.2,00.0,30.6,23.5,10.7,0000.0,0007.15,0004.93,0004.73
2022-01-20 04:07:00,,0833.3,5.00,0.00,21.9,22.9,00.0,30.7,23.8,10.5,0000.0,0007.09,0004.91,0004.71
2022-01-20 04:08:00,,0833.2,4.99,0.00,21.9,22.7,00.0,30.7,23.9,10.5,0000.0,0007.02,0004.88,0004.69
2022-01-20 04:09:00,,0833.1,5.01,0.00,21.9,22.2,00.0,30.7,23.8,10.5,0000.0,0006.95,0004.86,0004.70
2022-01-20 04:10:00,,0833.1,5.00,0.00,21.9,21.8,00.0,30.7,23.6,10.5,0000.0,0007.12,0004.92,0004.73
2022-01-20 04:11:00,,0833.1,5.01,0.00,21.9,21.5,00.0,30.7,23.5,10.5,0000.0,0007.08,0004.94,0004.77
2022-01-20 04:12:00,,0833.1,4.99,0.00,21.8,21.2,00.0,30.7,23.4,10.5,0000.0,0006.92,0004.93,0004.78
2022-01-20 04:13:00,,0833.2,4.99,0.00,21.8,21.0,00.0,30.7,23.4,10.6,0000.0,0006.88,0004.93,0004.79
2022-01-20 04:14:00,,0833.2,5.02,0.00,21.7,20.8,00.0,30.7,23.3,10.6,0000.0,0006.87,0004.94,0004.80
2022-01-20 04:15:00,,0833.2,4.99,0.00,21.7,20.7,00.0,30.7,23.2,10.6,0000.0,0007.08,0005.00,0004.84
2022-01-20 04:16:00,,0833.1,5.01,0.00,21.6,20.6,00.0,30.6,23.2,10.7,0000.0,0007.14,0005.01,0004.85
2022-01-20 04:17:00,,0833.1,4.99,0.00,21.6,20.6,00.0,30.6,23.2,10.7,0000.0,0007.21,0005.03,0004.86
2022-01-20 04:18:00,,0833.2,5.01,0.00,21.6,20.6,00.0,30.6,23.2,10.7,0000.7,0007.24,0005.05,0004.88
2022-01-20 04:19:00,,0833.2,5.00,0.00,21.6,21.4,00.0,30.6,23.3,10.7,0001.4,0007.26,0005.05,0004.88
2022-01-20 04:20:00,,0833.3,4.99,0.00,21.8,22.4,00.0,30.7,23.6,10.6,0001.7,0007.35,0005.06,0004.88
2022-01-20 04:21:00,,0833.2,5.00,0.00,21.9,22.9,00.0,30.7,23.9,10.5,0001.6,0007.28,0005.03,0004.85
2022-01-20 04:22:00,,0833.1,5.01,0.00,22.0,22.6,00.0,30.7,23.9,10.4,0001.5,0007.14,0004.96,0004.79
2022-01-20 04:23:00,,0833.1,5.00,0.00,22.0,22.2,00.0,30.8,23.8,10.4,0001.3,0007.13,0004.95,0004.78
2022-01-20 04:24:00,,0833.1,5.00,0.00,22.0,21.8,00.0,30.8,23.7,10.4,0000.9,0007.08,0004.94,0004.77
2022-01-20 04:25:00,,0833.1,5.00,0.00,21.9,21.5,00.0,30.8,23.6,10.5,0001.0,0007.14,0004.96,0004.78
2022-01-20 04:26:00,,0833.2,5.00,0.00,21.9,21.3,00.0,30.8,23.5,10.5,0000.5,0007.06,0004.94,0004.78
2022-01-20 04:27:00,,0833.1,5.00,0.00,21.8,21.1,00.0,30.8,23.5,10.5,0000.2,0007.05,0004.95,0004.79
2022-01-20 04:28:00,,0833.2,5.02,0.00,21.8,21.0,00.0,30.7,23.4,10.5,0001.5,0007.03,0004.94,0004.78
2022-01-20 04:29:00,,0833.1,4.99,0.00,21.7,20.9,00.0,30.7,23.3,10.6,0000.4,0007.04,0004.92,0004.75
2022-01-20 04:30:00,,0833.1,5.00,0.00,21.7,20.7,00.0,30.7,23.2,10.6,0000.0,0007.05,0004.92,0004.75
2022-01-20 04:31:00,,0833.2,4.98,0.00,21.7,20.7,00.0,30.7,23.2,10.6,0000.0,0007.01,0004.92,0004.75
2022-01-20 04:32:00,,0833.1,5.02,0.00,21.6,20.5,00.0,30.7,23.2,10.7,0000.0,0006.99,0004.93,0004.76
2022-01-20 04:33:00,,0833.2,4.99,0.00,21.6,20.6,00.0,30.6,23.1,10.7,0000.0,0007.02,0004.95,0004.78
2022-01-20 04:34:00,,0833.2,5.00,0.00,21.6,21.4,00.0,30.7,23.3,10.7,0000.0,0006.97,0004.95,0004.79
2022-01-20 04:35:00,,0833.1,5.01,0.00,21.8,22.4,00.0,30.7,23.6,10.6,0000.0,0006.99,0004.96,0004.79
2022-01-20 04:36:00,,0833.2,4.99,0.00,21.9,22.9,00.0,30.8,23.9,10.5,0000.0,0007.04,0004.96,0004.79
2022-01-20 04:37:00,,0833.2,5.01,0.00,22.0,22.5,00.0,30.8,23.9,10.5,0000.0,0007.06,0004.98,0004.81
2022-01-20 04:38:00,,0833.1,5.00,0.00,22.0,22.0,00.0,30.8,23.8,10.5,0000.0,0007.07,0004.98,0004.80
2022-01-20 04:39:00,,0833.1,4.99,0.00,21.9,21.7,00.0,30.8,23.6,10.5,0000.0,0007.01,0004.97,0004.79
2022-01-20 04:40:00,,0833.2,4.99,0.00,21.9,21.4,00.0,30.8,23.5,10.5,0000.0,0006.94,0004.97,0004.81
2022-01-20 04:41:00,,0833.1,5.02,0.00,21.8,21.2,00.0,30.7,23.5,10.5,0000.0,0007.00,0005.01,0004.84
2022-01-20 04:42:00,,0833.1,5.00,0.00,21.8,21.1,00.0,30.7,23.5,10.6,0000.0,0007.00,0005.02,0004.85
2022-01-20 04:43:00,,0833.1,5.00,0.00,21.8,21.1,00.0,30.7,23.4,10.6,0000.0,0007.10,0005.06,0004.87
2022-01-20 04:44:00,,0833.2,5.02,0.00,21.8,21.0,00.0,30.7,23.4,10.6,0000.0,0007.62,0005.09,0004.90
2022-01-20 04:45:00,,0833.2,4.99,0.00,21.7,20.9,00.0,30.7,23.3,10.6,0000.0,0007.72,0005.15,0004.94
2022-01-20 04:46:00,,0833.2,4.99,0.00,21.7,20.8,00.0,30.7,23.3,10.7,0000.0,0007.76,0005.18,0004.97
2022-01-20 04:47:00,,0833.1,5.02,0.00,21.7,20.9,00.0,30.7,23.3,10.7,0000.0,0007.81,0005.22,0005.00
2022-01-20 04:48:00,,0833.1,5.00,0.00,21.6,20.8,00.0,30.7,23.2,10.7,0000.0,0007.86,0005.26,0005.02
2022-01-20 04:49:00,,0833.1,4.99,0.00,21.6,20.9,00.0,30.6,23.3,10.7,0000.0,0007.87,0005.29,0005.06
2022-01-20 04:50:00,,0833.2,5.00,0.00,21.7,21.6,00.0,30.7,23.4,10.7,0000.0,0007.95,0005.33,0005.08
2022-01-20 04:51:00,,0833.1,5.02,0.00,21.8,22.5,00.0,30.7,23.7,10.6,0000.0,0008.09,0005.38,0005.09
2022-01-20 04:52:00,,0833.2,5.00,0.00,22.0,23.0,00.0,30.8,24.0,10.5,0000.0,0008.15,0005.44,0005.14
2022-01-20 04:53:00,,0833.2,5.00,0.00,22.0,22.6,00.0,30.8,24.0,10.5,0000.0,0008.23,0005.50,0005.18
2022-01-20 04:54:00,,0833.2,5.00,0.00,22.0,22.2,00.0,30.8,23.8,10.5,0000.0,0008.19,0005.49,0005.20
2022-01-20 04:55:00,,0833.2,5.01,0.00,22.0,21.8,00.0,30.8,23.7,10.5,0000.0,0007.85,0005.52,0005.20
2022-01-20 04:56:00,,0833.2,4.99,0.00,21.9,21.5,00.0,30.8,23.6,10.5,0000.0,0007.90,0005.53,0005.20
2022-01-20 04:57:00,,0833.1,5.00,0.00,21.9,21.3,00.0,30.8,23.5,10.6,0000.0,0007.93,0005.55,0005.21
2022-01-20 04:58:00,,0833.1,5.02,0.00,21.9,21.1,00.0,30.8,23.5,10.6,0000.0,0007.91,0005.55,0005.21
2022-01-20 04:59:00,,0833.1,4.98,0.00,21.8,21.0,00.0,30.8,23.4,10.6,0000.0,0007.93,0005.56,0005.22
